TimePDT,TemperatureF,Dew PointF,Humidity,Sea Level PressureIn,VisibilityMPH,Wind Direction,Wind SpeedMPH,Gust SpeedMPH,PrecipitationIn,Events,Conditions,WindDirDegrees,DateUTC
12:16 AM,55.4,51.8,88,29.89,10.0,NW,8.1,-,N/A,,Mostly Cloudy,310,2013-09-22 07:16:00
12:37 AM,55.4,51.8,88,29.89,10.0,NNW,4.6,-,N/A,,Mostly Cloudy,330,2013-09-22 07:37:00
12:53 AM,55.9,53.1,90,29.89,10.0,NNW,5.8,-,N/A,,Mostly Cloudy,330,2013-09-22 07:53:00
1:16 AM,55.4,51.8,88,29.89,10.0,NNW,4.6,-,N/A,,Mostly Cloudy,330,2013-09-22 08:16:00
1:53 AM,55.9,52.0,87,29.91,10.0,NW,3.5,-,N/A,,Scattered Clouds,310,2013-09-22 08:53:00
2:49 AM,53.6,51.8,94,29.91,10.0,West,3.5,-,N/A,,Scattered Clouds,270,2013-09-22 09:49:00
2:53 AM,54.0,51.1,90,29.91,10.0,WNW,3.5,-,N/A,,Scattered Clouds,290,2013-09-22 09:53:00
3:06 AM,55.4,51.8,88,29.91,10.0,NW,3.5,-,N/A,,Mostly Cloudy,320,2013-09-22 10:06:00
3:53 AM,55.9,53.1,90,29.91,10.0,NW,3.5,-,N/A,,Overcast,320,2013-09-22 10:53:00
4:53 AM,57.0,53.1,87,29.91,10.0,North,5.8,-,N/A,,Overcast,360,2013-09-22 11:53:00
5:53 AM,57.0,52.0,83,29.92,10.0,NE,5.8,-,N/A,,Overcast,40,2013-09-22 12:53:00
6:53 AM,55.9,53.1,90,29.94,10.0,NW,4.6,-,N/A,,Overcast,310,2013-09-22 13:53:00
7:42 AM,55.4,53.6,94,29.95,10.0,WNW,6.9,-,N/A,,Overcast,300,2013-09-22 14:42:00
7:53 AM,55.9,52.0,87,29.96,10.0,WNW,6.9,-,N/A,,Overcast,300,2013-09-22 14:53:00
8:18 AM,57.2,51.8,82,29.96,10.0,NW,4.6,-,N/A,,Overcast,320,2013-09-22 15:18:00
8:53 AM,57.0,53.1,87,29.98,10.0,NW,6.9,-,N/A,,Overcast,320,2013-09-22 15:53:00
9:53 AM,61.0,54.0,78,29.99,10.0,Variable,5.8,-,N/A,,Overcast,0,2013-09-22 16:53:00
10:53 AM,63.0,52.0,67,30.00,10.0,NNW,8.1,-,N/A,,Mostly Cloudy,330,2013-09-22 17:53:00
11:20 AM,66.2,53.6,64,29.99,10.0,Variable,3.5,-,N/A,,Scattered Clouds,0,2013-09-22 18:20:00
11:53 AM,66.9,53.1,61,29.99,10.0,NNW,8.1,-,N/A,,Scattered Clouds,340,2013-09-22 18:53:00
12:53 PM,66.9,53.1,61,29.97,10.0,West,5.8,-,N/A,,Clear,270,2013-09-22 19:53:00
1:53 PM,70.0,52.0,53,29.96,10.0,Variable,6.9,-,N/A,,Clear,0,2013-09-22 20:53:00
2:53 PM,72.0,51.1,48,29.95,10.0,NW,8.1,-,N/A,,Clear,310,2013-09-22 21:53:00
3:53 PM,73.9,48.9,41,29.94,10.0,West,8.1,-,N/A,,Clear,270,2013-09-22 22:53:00
4:53 PM,73.0,48.9,42,29.94,10.0,WSW,5.8,-,N/A,,Clear,250,2013-09-22 23:53:00
5:53 PM,73.9,48.9,41,29.93,10.0,WNW,3.5,-,N/A,,Clear,300,2013-09-23 00:53:00
6:53 PM,71.1,51.1,49,29.94,10.0,WSW,4.6,-,N/A,,Clear,250,2013-09-23 01:53:00
7:53 PM,68.0,53.1,59,29.94,10.0,SW,3.5,-,N/A,,Clear,220,2013-09-23 02:53:00
8:53 PM,64.9,52.0,63,29.96,10.0,SW,4.6,-,N/A,,Clear,230,2013-09-23 03:53:00
9:53 PM,62.1,53.1,72,29.97,10.0,WSW,4.6,-,N/A,,Clear,240,2013-09-23 04:53:00
10:53 PM,60.1,53.1,78,29.98,10.0,WSW,4.6,-,N/A,,Clear,250,2013-09-23 05:53:00
11:53 PM,57.9,53.1,84,29.98,10.0,Calm,Calm,-,N/A,,Clear,0,2013-09-23 06:53:00